| time (UTC) | temp F | wind direction | speed MPH | gust MPH | rain 1hr in | rain 24hr in | rain mn in | humidity % | barometer mb |
| 20260504035716 | 51 | 154 | 0.0 | 0.0 | 0.00 | 0.00 | 0.00 | 57 | 1003.0 |
| 20260504035213 | 51 | 153 | 0.0 | 0.0 | 0.00 | 0.00 | 0.00 | 56 | 1002.9 |
| 20260504034710 | 51 | 150 | 0.0 | 0.0 | 0.00 | 0.00 | 0.00 | 56 | 1003.1 |
| 20260504034208 | 51 | 154 | 0.0 | 0.0 | 0.00 | 0.00 | 0.00 | 55 | 1003.3 |
| 20260504033705 | 51 | 155 | 0.0 | 0.0 | 0.00 | 0.00 | 0.00 | 55 | 1003.3 |
| 20260504033202 | 51 | 156 | 0.0 | 0.0 | 0.00 | 0.00 | 0.00 | 56 | 1003.5 |
| 20260504032659 | 51 | 154 | 0.0 | 0.0 | 0.00 | 0.00 | 0.00 | 55 | 1003.5 |
| 20260504032156 | 51 | 152 | 0.0 | 0.0 | 0.00 | 0.00 | 0.00 | 55 | 1003.7 |
| 20260504031653 | 51 | 154 | 0.0 | 0.0 | 0.00 | 0.00 | 0.00 | 55 | 1003.8 |
| 20260504031149 | 52 | 154 | 0.0 | 0.0 | 0.00 | 0.00 | 0.00 | 54 | 1003.9 |
| 20260504030646 | 52 | 154 | 0.0 | 0.0 | 0.00 | 0.00 | 0.00 | 54 | 1003.9 |
| 20260504030143 | 52 | 154 | 0.0 | 0.0 | 0.00 | 0.00 | 0.00 | 55 | 1003.9 |
| 20260504025640 | 52 | 154 | 0.0 | 0.0 | 0.00 | 0.00 | 0.00 | 55 | 1004.0 |
| 20260504025136 | 52 | 154 | 0.0 | 0.0 | 0.00 | 0.00 | 0.00 | 55 | 1004.1 |
| 20260504024634 | 53 | 151 | 0.0 | 0.0 | 0.00 | 0.00 | 0.00 | 52 | 1004.1 |
| 20260504024130 | 53 | 153 | 0.0 | 0.0 | 0.00 | 0.00 | 0.00 | 53 | 1003.9 |
| 20260504023627 | 53 | 152 | 0.0 | 0.0 | 0.00 | 0.00 | 0.00 | 58 | 1004.0 |
| 20260504023123 | 53 | 152 | 0.0 | 0.0 | 0.00 | 0.00 | 0.00 | 53 | 1004.0 |
| 20260504022619 | 54 | 152 | 0.0 | 0.0 | 0.00 | 0.00 | 0.00 | 51 | 1004.0 |
| 20260504022115 | 54 | 156 | 0.0 | 0.0 | 0.00 | 0.00 | 0.00 | 51 | 1004.1 |
| 20260504021614 | 55 | 156 | 0.0 | 0.0 | 0.00 | 0.00 | 0.00 | 55 | 1004.1 |
| 20260504021110 | 55 | 154 | 0.0 | 0.0 | 0.00 | 0.00 | 0.00 | 59 | 1003.9 |
| 20260504020607 | 55 | 147 | 0.0 | 0.0 | 0.00 | 0.00 | 0.00 | 54 | 1003.9 |
| 20260504020103 | 56 | 152 | 0.0 | 0.0 | 0.00 | 0.00 | 0.00 | 47 | 1004.1 |
| 20260504015600 | 57 | 157 | 0.0 | 0.0 | 0.00 | 0.00 | 0.00 | 46 | 1003.9 |
| 20260504015055 | 57 | 157 | 0.0 | 0.0 | 0.00 | 0.00 | 0.00 | 50 | 1004.0 |
| 20260504014552 | 58 | 157 | 0.0 | 0.0 | 0.00 | 0.00 | 0.00 | 55 | 1004.0 |
| 20260504014049 | 59 | 156 | 0.0 | 0.0 | 0.00 | 0.00 | 0.00 | 56 | 1004.0 |
| 20260504013547 | 60 | 149 | 0.0 | 0.0 | 0.00 | 0.00 | 0.00 | 51 | 1004.0 |
| 20260504013043 | 60 | 157 | 0.0 | 0.0 | 0.00 | 0.00 | 0.00 | 45 | 1004.1 |
| 20260504012541 | 61 | 158 | 0.0 | 0.0 | 0.00 | 0.00 | 0.00 | 40 | 1004.0 |
| 20260504012039 | 62 | 158 | 0.0 | 0.0 | 0.00 | 0.00 | 0.00 | 39 | 1004.1 |
| 20260504011535 | 63 | 157 | 0.0 | 0.0 | 0.00 | 0.00 | 0.00 | 36 | 1004.0 |
| 20260504011031 | 64 | 162 | 0.0 | 0.0 | 0.00 | 0.00 | 0.00 | 33 | 1003.9 |
| 20260504010527 | 64 | 166 | 0.0 | 0.0 | 0.00 | 0.00 | 0.00 | 33 | 1004.0 |
| 20260504010023 | 65 | 172 | 0.0 | 0.0 | 0.00 | 0.00 | 0.00 | 34 | 1004.2 |
| 20260504005520 | 65 | 143 | 0.0 | 1.0 | 0.00 | 0.00 | 0.00 | 37 | 1004.0 |
| 20260504005018 | 66 | 148 | 0.0 | 0.0 | 0.00 | 0.00 | 0.00 | 34 | 1004.3 |
| 20260504004516 | 66 | 151 | 0.0 | 0.0 | 0.00 | 0.00 | 0.00 | 33 | 1004.1 |
| 20260504004012 | 66 | 146 | 0.0 | 0.0 | 0.00 | 0.00 | 0.00 | 33 | 1004.2 |
| 20260504003508 | 66 | 154 | 0.0 | 1.0 | 0.00 | 0.00 | 0.00 | 36 | 1004.1 |
| 20260504003006 | 66 | 145 | 0.0 | 0.0 | 0.00 | 0.00 | 0.00 | 34 | 1004.3 |
| 20260504002502 | 65 | 109 | 1.0 | 1.0 | 0.00 | 0.00 | 0.00 | 35 | 1004.3 |
| 20260504001959 | 65 | 114 | 1.0 | 1.0 | 0.00 | 0.00 | 0.00 | 38 | 1004.2 |
| 20260504001457 | 66 | 110 | 1.0 | 1.0 | 0.00 | 0.00 | 0.00 | 34 | 1004.3 |
| 20260504000953 | 66 | 129 | 1.0 | 2.0 | 0.00 | 0.00 | 0.00 | 34 | 1004.3 |
| 20260504000450 | 67 | 46 | 2.0 | 3.0 | 0.00 | 0.00 | 0.00 | 30 | 1004.3 |
| 20260503235948 | 68 | 230 | 1.0 | 2.0 | 0.00 | 0.00 | 0.00 | 33 | 1004.3 |
| 20260503235445 | 69 | 147 | 1.0 | 1.0 | 0.00 | 0.00 | 0.00 | 29 | 1004.4 |
| 20260503234942 | 69 | 116 | 1.0 | 1.0 | 0.00 | 0.00 | 0.00 | 35 | 1004.2 |
| 20260503234440 | 71 | 86 | 1.0 | 2.0 | 0.00 | 0.00 | 0.00 | 29 | 1004.3 |
| 20260503233938 | 72 | 72 | 1.0 | 2.0 | 0.00 | 0.00 | 0.00 | 31 | 1004.3 |
| 20260503233434 | 71 | 17 | 2.0 | 2.0 | 0.00 | 0.00 | 0.00 | 28 | 1004.4 |
| 20260503232931 | 71 | 99 | 1.0 | 1.0 | 0.00 | 0.00 | 0.00 | 26 | 1004.4 |
| 20260503232428 | 72 | 100 | 2.0 | 3.0 | 0.00 | 0.00 | 0.00 | 27 | 1004.4 |
| 20260503231926 | 73 | 43 | 3.0 | 3.0 | 0.00 | 0.00 | 0.00 | 27 | 1004.4 |
| 20260503231423 | 73 | 140 | 1.0 | 2.0 | 0.00 | 0.00 | 0.00 | 33 | 1004.7 |
| 20260503230919 | 73 | 106 | 1.0 | 1.0 | 0.00 | 0.00 | 0.00 | 28 | 1004.4 |
| 20260503230416 | 73 | 45 | 2.0 | 2.0 | 0.00 | 0.00 | 0.00 | 31 | 1004.7 |
| 20260503225914 | 72 | 336 | 2.0 | 6.0 | 0.00 | 0.00 | 0.00 | 28 | 1004.7 |
| 20260503225409 | 73 | 23 | 3.0 | 3.0 | 0.00 | 0.00 | 0.00 | 29 | 1004.6 |
| 20260503224906 | 73 | 46 | 2.0 | 2.0 | 0.00 | 0.00 | 0.00 | 30 | 1004.7 |
| 20260503224403 | 73 | 78 | 2.0 | 2.0 | 0.00 | 0.00 | 0.00 | 27 | 1004.7 |
| 20260503223900 | 73 | 101 | 2.0 | 3.0 | 0.00 | 0.00 | 0.00 | 29 | 1004.5 |
| 20260503223358 | 73 | 83 | 2.0 | 2.0 | 0.00 | 0.00 | 0.00 | 35 | 1004.7 |
| 20260503222853 | 73 | 43 | 2.0 | 2.0 | 0.00 | 0.00 | 0.00 | 36 | 1004.8 |
| 20260503222352 | 72 | 46 | 3.0 | 3.0 | 0.00 | 0.00 | 0.00 | 32 | 1004.8 |
| 20260503221850 | 72 | 23 | 4.0 | 4.0 | 0.00 | 0.00 | 0.00 | 32 | 1004.8 |
| 20260503221348 | 73 | 45 | 4.0 | 6.0 | 0.00 | 0.00 | 0.00 | 33 | 1004.8 |
| 20260503220844 | 73 | 55 | 3.0 | 3.0 | 0.00 | 0.00 | 0.00 | 31 | 1004.9 |
| 20260503220341 | 73 | 72 | 2.0 | 2.0 | 0.00 | 0.00 | 0.00 | 30 | 1004.7 |
| 20260503215838 | 73 | 25 | 3.0 | 3.0 | 0.00 | 0.00 | 0.00 | 30 | 1005.0 |
| 20260503215335 | 73 | 152 | 2.0 | 3.0 | 0.00 | 0.00 | 0.00 | 30 | 1005.0 |
| 20260503214833 | 73 | 295 | 4.0 | 4.0 | 0.00 | 0.00 | 0.00 | 28 | 1005.1 |
| 20260503214330 | 74 | 40 | 3.0 | 3.0 | 0.00 | 0.00 | 0.00 | 33 | 1005.0 |
| 20260503213827 | 73 | 35 | 4.0 | 4.0 | 0.00 | 0.00 | 0.00 | 25 | 1004.8 |
| 20260503213325 | 73 | 96 | 2.0 | 3.0 | 0.00 | 0.00 | 0.00 | 24 | 1005.1 |
| 20260503212821 | 73 | 54 | 3.0 | 3.0 | 0.00 | 0.00 | 0.00 | 28 | 1005.0 |
| 20260503212319 | 73 | 41 | 9.0 | 13.0 | 0.00 | 0.00 | 0.00 | 24 | 1005.0 |
| 20260503211816 | 74 | 47 | 4.0 | 4.0 | 0.00 | 0.00 | 0.00 | 32 | 1005.0 |
| 20260503211313 | 74 | 63 | 3.0 | 3.0 | 0.00 | 0.00 | 0.00 | 35 | 1004.9 |
| 20260503210813 | 74 | 94 | 3.0 | 4.0 | 0.00 | 0.00 | 0.00 | 31 | 1005.0 |
| 20260503210311 | 73 | 27 | 3.0 | 3.0 | 0.00 | 0.00 | 0.00 | 33 | 1005.2 |
| 20260503205806 | 74 | 31 | 4.0 | 4.0 | 0.00 | 0.00 | 0.00 | 31 | 1005.1 |
| 20260503205304 | 73 | 26 | 3.0 | 3.0 | 0.00 | 0.00 | 0.00 | 34 | 1005.0 |
| 20260503204759 | 73 | 104 | 2.0 | 2.0 | 0.00 | 0.00 | 0.00 | 27 | 1005.1 |
| 20260503204257 | 73 | 22 | 5.0 | 8.0 | 0.00 | 0.00 | 0.00 | 31 | 1005.0 |
| 20260503203754 | 73 | 78 | 2.0 | 3.0 | 0.00 | 0.00 | 0.00 | 38 | 1005.2 |
| 20260503203251 | 73 | 56 | 4.0 | 4.0 | 0.00 | 0.00 | 0.00 | 35 | 1005.5 |
| 20260503202748 | 73 | 12 | 6.0 | 9.0 | 0.00 | 0.00 | 0.00 | 31 | 1005.3 |
| 20260503202246 | 73 | 60 | 4.0 | 4.0 | 0.00 | 0.00 | 0.00 | 34 | 1005.3 |
| 20260503201744 | 73 | 161 | 0.0 | 0.0 | 0.00 | 0.00 | 0.00 | 27 | 1005.4 |
| 20260503201241 | 72 | 74 | 1.0 | 1.0 | 0.00 | 0.00 | 0.00 | 32 | 1005.5 |
| 20260503200737 | 72 | 34 | 4.0 | 4.0 | 0.00 | 0.00 | 0.00 | 35 | 1005.2 |
| 20260503200233 | 73 | 232 | 3.0 | 4.0 | 0.00 | 0.00 | 0.00 | 28 | 1005.5 |
| 20260503195731 | 72 | 29 | 4.0 | 4.0 | 0.00 | 0.00 | 0.00 | 40 | 1005.4 |
| 20260503195227 | 72 | 51 | 3.0 | 3.0 | 0.00 | 0.00 | 0.00 | 30 | 1005.4 |
| 20260503194726 | 72 | 38 | 5.0 | 8.0 | 0.00 | 0.00 | 0.00 | 30 | 1005.6 |
| 20260503194221 | 72 | 336 | 6.0 | 8.0 | 0.00 | 0.00 | 0.00 | 32 | 1006.0 |
| 20260503193717 | 72 | 94 | 2.0 | 3.0 | 0.00 | 0.00 | 0.00 | 32 | 1005.7 |
| 20260503193213 | 72 | 60 | 3.0 | 6.0 | 0.00 | 0.00 | 0.00 | 33 | 1005.6 |
| 20260503192709 | 72 | 126 | 4.0 | 6.0 | 0.00 | 0.00 | 0.00 | 35 | 1005.6 |
| 20260503192204 | 71 | 30 | 3.0 | 4.0 | 0.00 | 0.00 | 0.00 | 39 | 1005.8 |
| 20260503191701 | 71 | 346 | 3.0 | 6.0 | 0.00 | 0.00 | 0.00 | 36 | 1005.9 |
| 20260503191158 | 71 | 27 | 3.0 | 3.0 | 0.00 | 0.00 | 0.00 | 35 | 1005.7 |
| 20260503190655 | 71 | 36 | 2.0 | 3.0 | 0.00 | 0.00 | 0.00 | 38 | 1005.8 |
| 20260503190152 | 71 | 68 | 4.0 | 6.0 | 0.00 | 0.00 | 0.00 | 37 | 1005.8 |
| 20260503185649 | 70 | 340 | 4.0 | 6.0 | 0.00 | 0.00 | 0.00 | 38 | 1005.9 |
| 20260503185144 | 71 | 65 | 2.0 | 2.0 | 0.00 | 0.00 | 0.00 | 32 | 1005.9 |
| 20260503184639 | 70 | 75 | 3.0 | 4.0 | 0.00 | 0.00 | 0.00 | 33 | 1006.0 |
| 20260503184136 | 70 | 323 | 5.0 | 8.0 | 0.00 | 0.00 | 0.00 | 31 | 1006.0 |
| 20260503183632 | 71 | 123 | 2.0 | 3.0 | 0.00 | 0.00 | 0.00 | 36 | 1006.2 |
| 20260503183130 | 70 | 44 | 3.0 | 3.0 | 0.00 | 0.00 | 0.00 | 43 | 1006.3 |
| 20260503182628 | 71 | 48 | 3.0 | 4.0 | 0.00 | 0.00 | 0.00 | 43 | 1006.2 |
| 20260503182126 | 70 | 44 | 5.0 | 6.0 | 0.00 | 0.00 | 0.00 | 43 | 1006.2 |
| 20260503181622 | 70 | 41 | 4.0 | 6.0 | 0.00 | 0.00 | 0.00 | 41 | 1006.3 |
| 20260503181119 | 70 | 77 | 4.0 | 6.0 | 0.00 | 0.00 | 0.00 | 45 | 1006.4 |
| 20260503180616 | 69 | 161 | 1.0 | 2.0 | 0.00 | 0.00 | 0.00 | 43 | 1006.1 |
| 20260503180114 | 69 | 34 | 3.0 | 3.0 | 0.00 | 0.00 | 0.00 | 40 | 1006.4 |
| 20260503175611 | 69 | 61 | 4.0 | 4.0 | 0.00 | 0.00 | 0.00 | 37 | 1006.2 |
| 20260503175108 | 70 | 38 | 5.0 | 6.0 | 0.00 | 0.00 | 0.00 | 41 | 1006.2 |
| 20260503174605 | 69 | 135 | 1.0 | 2.0 | 0.00 | 0.00 | 0.00 | 44 | 1006.2 |
| 20260503174102 | 69 | 19 | 4.0 | 6.0 | 0.00 | 0.00 | 0.00 | 47 | 1006.5 |
| 20260503173556 | 69 | 33 | 5.0 | 6.0 | 0.00 | 0.00 | 0.00 | 47 | 1006.2 |
| 20260503173053 | 69 | 48 | 3.0 | 3.0 | 0.00 | 0.00 | 0.00 | 47 | 1006.4 |
| 20260503172550 | 69 | 164 | 2.0 | 3.0 | 0.00 | 0.00 | 0.00 | 40 | 1006.3 |
| 20260503172048 | 69 | 29 | 6.0 | 8.0 | 0.00 | 0.00 | 0.00 | 39 | 1006.4 |
| 20260503171544 | 69 | 145 | 0.0 | 1.0 | 0.00 | 0.00 | 0.00 | 38 | 1006.4 |
| 20260503171041 | 69 | 208 | 3.0 | 3.0 | 0.00 | 0.00 | 0.00 | 40 | 1006.6 |
| 20260503170538 | 68 | 25 | 3.0 | 4.0 | 0.00 | 0.00 | 0.00 | 48 | 1006.4 |
| 20260503150930 | 64 | 145 | 1.0 | 2.0 | 0.00 | 0.00 | 0.00 | 49 | 1006.2 |
| 20260503150427 | 63 | 125 | 0.0 | 1.0 | 0.00 | 0.00 | 0.00 | 46 | 1006.2 |
| 20260503131320 | 58 | 161 | 0.0 | 0.0 | 0.00 | 0.00 | 0.00 | 50 | 1005.7 |
| 20260503130817 | 58 | 177 | 1.0 | 1.0 | 0.00 | 0.00 | 0.00 | 48 | 1005.8 |
| 20260503130315 | 57 | 157 | 0.0 | 0.0 | 0.00 | 0.00 | 0.00 | 51 | 1005.5 |
| 20260503110708 | 51 | 152 | 0.0 | 0.0 | 0.00 | 0.00 | 0.00 | 56 | 1004.7 |
| 20260503110205 | 52 | 164 | 0.0 | 1.0 | 0.00 | 0.00 | 0.00 | 53 | 1004.8 |
| 20260503100132 | 55 | 170 | 2.0 | 3.0 | 0.00 | 0.00 | 0.00 | 47 | 1005.3 |
| 20260503081521 | 55 | 163 | 0.0 | 1.0 | 0.00 | 0.00 | 0.00 | 54 | 1005.7 |
| 20260503081019 | 55 | 168 | 1.0 | 1.0 | 0.00 | 0.00 | 0.00 | 53 | 1006.0 |
| 20260503080515 | 55 | 176 | 2.0 | 2.0 | 0.00 | 0.00 | 0.00 | 53 | 1005.7 |
| 20260503072448 | 55 | 175 | 1.0 | 1.0 | 0.00 | 0.00 | 0.00 | 52 | 1006.3 |
| 20260503071945 | 55 | 164 | 1.0 | 1.0 | 0.00 | 0.00 | 0.00 | 51 | 1006.6 |
| 20260503071442 | 55 | 184 | 1.0 | 1.0 | 0.00 | 0.00 | 0.00 | 51 | 1006.5 |
| 20260503070938 | 55 | 181 | 1.0 | 1.0 | 0.00 | 0.00 | 0.00 | 50 | 1006.7 |
| 20260503070435 | 55 | 172 | 1.0 | 1.0 | 0.00 | 0.00 | 0.00 | 51 | 1006.8 |
| 20260503054849 | 55 | 161 | 0.0 | 1.0 | 0.00 | 0.00 | 0.00 | 52 | 1008.0 |
| 20260503054345 | 55 | 159 | 0.0 | 0.0 | 0.00 | 0.00 | 0.00 | 51 | 1008.0 |
| 20260503053843 | 56 | 159 | 0.0 | 0.0 | 0.00 | 0.00 | 0.00 | 49 | 1008.1 |
| 20260503053341 | 56 | 174 | 2.0 | 3.0 | 0.00 | 0.00 | 0.00 | 49 | 1008.1 |
| 20260503052837 | 56 | 179 | 1.0 | 2.0 | 0.00 | 0.00 | 0.00 | 49 | 1008.1 |
| 20260503052334 | 57 | 166 | 1.0 | 2.0 | 0.00 | 0.00 | 0.00 | 49 | 1008.2 |
| 20260503051830 | 57 | 157 | 2.0 | 3.0 | 0.00 | 0.00 | 0.00 | 49 | 1008.1 |
| 20260503051327 | 57 | 160 | 1.0 | 1.0 | 0.00 | 0.00 | 0.00 | 49 | 1008.4 |
| 20260503050823 | 57 | 165 | 1.0 | 1.0 | 0.00 | 0.00 | 0.00 | 49 | 1008.4 |
| 20260503050320 | 57 | 168 | 0.0 | 0.0 | 0.00 | 0.00 | 0.00 | 49 | 1008.4 |
| 20260503045818 | 57 | 170 | 1.0 | 2.0 | 0.00 | 0.00 | 0.00 | 50 | 1008.5 |
| 20260503045315 | 57 | 171 | 1.0 | 1.0 | 0.00 | 0.00 | 0.00 | 50 | 1008.4 |
| 20260503044811 | 56 | 158 | 1.0 | 1.0 | 0.00 | 0.00 | 0.00 | 51 | 1008.5 |
| 20260503044308 | 56 | 164 | 0.0 | 1.0 | 0.00 | 0.00 | 0.00 | 51 | 1008.7 |
| 20260503043806 | 57 | 153 | 0.0 | 0.0 | 0.00 | 0.00 | 0.00 | 54 | 1008.7 |
| 20260503043302 | 57 | 174 | 2.0 | 3.0 | 0.00 | 0.00 | 0.00 | 52 | 1008.6 |
| 20260503042758 | 56 | 175 | 1.0 | 2.0 | 0.00 | 0.00 | 0.00 | 55 | 1009.0 |
| 20260503042255 | 57 | 155 | 0.0 | 0.0 | 0.00 | 0.00 | 0.00 | 54 | 1009.0 |
| 20260503041751 | 58 | 158 | 0.0 | 1.0 | 0.00 | 0.00 | 0.00 | 54 | 1008.8 |
| 20260503041249 | 57 | 175 | 2.0 | 2.0 | 0.00 | 0.00 | 0.00 | 54 | 1008.8 |
| 20260503040746 | 57 | 162 | 0.0 | 0.0 | 0.00 | 0.00 | 0.00 | 54 | 1009.2 |
| 20260503040244 | 58 | 148 | 0.0 | 0.0 | 0.00 | 0.00 | 0.00 | 52 | 1009.2 |